This is the latest recevied weather packets stored in our database for station/object KY4GW. If no packets are shown the sender has not sent any weather packets the latest 10 day(s).
| Time | Temp. | Humidity | Pressure | Rain* | Wind** | Luminosity | Snow |
|---|---|---|---|---|---|---|---|
| 1777954270 | 15.56° C | 77% | 1011.6 hPa | 0 mm | - | 0 W/m² | - |
| 1777953968 | 15.56° C | 77% | 1011.6 hPa | 0 mm | - | 0 W/m² | - |
| 1777953665 | 15.56° C | 74% | 1011.3 hPa | 0 mm | - | 0 W/m² | - |
| 1777953361 | 15.56° C | 76% | 1011.3 hPa | 0 mm | - | 0 W/m² | - |
| 1777953057 | 15° C | 77% | 1011.3 hPa | 0 mm | - | 0 W/m² | - |
| 1777952754 | 15° C | 79% | 1011.3 hPa | 0 mm | - | 0 W/m² | - |
| 1777952451 | 15° C | 77% | 1011.3 hPa | 0 mm | - | 0 W/m² | - |
| 1777952148 | 15.56° C | 78% | 1011.3 hPa | 0 mm | - | 0 W/m² | - |
| 1777951846 | 15° C | 77% | 1011.3 hPa | 0 mm | - | 0 W/m² | - |
| 1777951544 | 15° C | 76% | 1011.3 hPa | 0 mm | - | 0 W/m² | - |
| 1777951240 | 15.56° C | 76% | 1011.3 hPa | 0 mm | - | 0 W/m² | - |
| 1777950937 | 15.56° C | 76% | 1011.3 hPa | 0 mm | - | 0 W/m² | - |
| 1777950633 | 16.11° C | 72% | 1011.3 hPa | 0 mm | - | 0 W/m² | - |
| 1777950330 | 16.67° C | 71% | 1011.3 hPa | 0 mm | - | 0 W/m² | - |
| 1777950026 | 16.67° C | 70% | 1010.6 hPa | 0 mm | - | 0 W/m² | - |
| 1777949722 | 16.67° C | 73% | 1010.6 hPa | 0 mm | - | 0 W/m² | - |
| 1777949422 | 16.67° C | 69% | 1010.6 hPa | 0 mm | - | 0 W/m² | - |
| 1777949118 | 17.22° C | 68% | 1010.3 hPa | 0 mm | - | 0 W/m² | - |
| 1777948815 | 17.22° C | 67% | 1010.3 hPa | 0 mm | - | 0 W/m² | - |
| 1777948512 | 17.78° C | 66% | 1010.3 hPa | 0 mm | - | 0 W/m² | - |
| 1777948210 | 17.22° C | 67% | 1010.3 hPa | 0 mm | - | 0 W/m² | - |
| 1777947907 | 17.22° C | 67% | 1010.3 hPa | 0 mm | - | 0 W/m² | - |
| 1777947604 | 17.22° C | 69% | 1010.3 hPa | 0 mm | - | 0 W/m² | - |
| 1777947301 | 16.67° C | 69% | 1010.3 hPa | 0 mm | - | 0 W/m² | - |
| 1777946996 | 16.67° C | 72% | 1010.3 hPa | 0 mm | - | 0 W/m² | - |
* Rain latest hour (hover to see other rain measurements)
** Current wind speed in m/s (hover to see current wind gust speed)